Location: F?ge?el
(45.8833°N, 22.5833°E)
Time: 12:25:29
(UTC+00:00)

Cosmos 2233 Rocket - Pass Details

Date: 17 November 2025
Orbit: 952 x 989 km, 82.9° (Epoch: 11 December)

Event Time Altitude Azimuth Distance (km) Brightness Sun altitude
Rises 15:14:14 0° 173° (S) 3,676 7.3 -3.7°
Reaches altitude 10° 15:16:46 10° 170° (S) 2,735 6.5 -4.1°
Maximum altitude 15:22:55 59° 92° (E) 1,131 4.1 -5.1°
Drops below altitude 10° 15:29:07 10° 15° (NNE) 2,761 6.0 -6.1°
Sets 15:31:41 0° 12° (NNE) 3,713 6.7 -6.5°
